Погода в Негомбо

Шри-Ланка     7°12′37″N   79°50′31″E
темп.,
°C
ветер,
м/с
пор.,
м/с
влажн.,
%
обл.,
%
осадки,
мм/ч
давл.,
гПа
погр.,
м
26 февраля, пт
пт2623:30+27св337527 0.0 1012389
02:30+25в337966 0.0 1010226
05:30+25юв338137 0.0 1009242
08:30+26ю22810 0.0 1012418
11:30+26зсз338015 0.0 1011484
14:30+26зсз558220 0.0 1008464
17:30+27зсз457115 0.0 1008525
20:30+27с11645 0.0 1010472
27 февраля, сб
сб2723:30+26вюв227329 0.0 1011235
02:30+25юв11760 0.0 1008203
05:30+25ююв23790 0.0 1008350
08:30+26ююв22780 0.0 1011446
11:30+26з33720 0.0 1010530
14:30+27зсз55710 0.0 1007501
17:30+27зсз55700 0.0 1007499
20:30+27с12660 0.0 1010615
28 февраля, вс
вс2823:30+26в33751 0.0 1010227
02:30+25вюв337730 0.0 1008174
05:30+25юв227929 0.0 1008213
08:30+25ююв227847 0.0 1011307
11:30+25зюз347924 0.0 1010362
14:30+27з457547 0.0 1007505
17:30+27зюз447324 0.0 1007563
20:30+27зюз11691 0.0 1010758
1 марта, пн
пн123:30+27всв11729 0.0 1011314
02:30+26св227943 0.0 1008251
05:30+25всв338671 0.0 1009224
08:30+24в228448 0.0 1012199
11:30+25зсз348658 0.0 1012279
14:30+26з5578100 0.0 1009440
17:30+27зсз557183 0.0 1009611
20:30+27сз216467 0.0 1012701
2 марта, вт
вт223:30+27с116533 0.0 1012517
02:30+26в22730 0.0 1010300
05:30+24всв44840 0.0 1010211
08:30+24св22780 0.0 1013292
11:30+25зюз44780 0.0 1013334
14:30+26зюз66730 0.0 1009411
17:30+27з44640 0.0 1009667
20:30+27ссз23650 0.0 1011759